Fitchburg, MA

7:43 AM EST on December 08, 2019 (GMT -0500)
Fitchburg Municipal

Weather History for KFIT - May, 2019

Change the Weather History Date:

Friday, May 31, 2019

  Actual Average (WUND) Record (WUND)
Temperature  
Mean Temperature 66 °F -  
Max Temperature 77 °F - - (-1)
Min Temperature 55 °F - - (-1)
Cooling Degree Days 1    
Growing Degree Days 16 (Base 50)    
Moisture  
Dew Point 54 °F    
Average Humidity 69    
Maximum Humidity 90    
Minimum Humidity 35    
Precipitation  
Precipitation 0.01 in - - ()
Sea Level Pressure  
Sea Level Pressure 29.71 in    
Wind  
Wind Speed 3 mph (NW)    
Max Wind Speed 12 mph    
Max Gust Speed 16 mph    
Visibility 10 miles    
Events Rain    
Averages and records for this station are not official NWS values.
T = Trace of Precipitation, MM = Missing Value Source: NWS Daily Summary

Daily Weather History Graph

Daily Weather History Graph

Search for Another Location

Airport or City:

Astronomy

May. 31, 2019 Rise Set
Actual Time 5:12 AM EDT 8:17 PM EDT
Civil Twilight 4:38 AM EDT 8:51 PM EDT
Nautical Twilight 3:55 AM EDT 9:34 PM EDT
Astronomical Twilight 3:04 AM EDT 10:26 PM EDT
Moon 3:50 AM EDT (5/31) 5:18 PM EDT (5/31)
Length of Visible Light 16h 12m
Length of Day
15h 04m
Waning Crescent, 9% of the Moon is Illuminated
May 31
Waning Crescent
Jun 3
New
Jun 10
First Quarter
Jun 17
Full
Jun 25
Last Quarter

Hourly Weather History & Observations

Time (EDT) Temp. Dew Point Humidity Pressure Visibility Wind Dir Wind Speed Gust Speed Precip Events Conditions
12:39 AM 61.0 °F 57.9 °F 90% 29.65 in 10.0 mi ESE 3.5 mph - 0.01 in   Overcast
12:52 AM 61.0 °F 57.9 °F 90% 29.64 in 10.0 mi Calm Calm - 0.01 in Rain Light Rain
12:59 AM 61.0 °F 57.9 °F 90% 29.64 in 10.0 mi Calm Calm - 0.00 in Rain Light Rain
1:10 AM 61.0 °F 57.9 °F 90% 29.64 in 10.0 mi Calm Calm - 0.00 in   Overcast
1:41 AM 62.1 °F 57.9 °F 86% 29.63 in 10.0 mi Calm Calm - 0.00 in   Overcast
1:52 AM 61.0 °F 57.9 °F 90% 29.62 in 10.0 mi Calm Calm - 0.00 in   Overcast
2:52 AM 62.1 °F 57.9 °F 86% 29.61 in 10.0 mi NW 3.5 mph - N/A   Overcast
3:03 AM 61.0 °F 57.9 °F 90% 29.62 in 10.0 mi WSW 3.5 mph - N/A   Overcast
3:17 AM 61.0 °F 57.9 °F 90% 29.62 in 10.0 mi Calm Calm - N/A   Overcast
3:25 AM 62.1 °F 57.9 °F 86% 29.63 in 10.0 mi Variable 3.5 mph - N/A   Overcast
3:52 AM 62.1 °F 57.9 °F 86% 29.62 in 10.0 mi Calm Calm - 0.00 in Rain Light Rain
4:52 AM 61.0 °F 57.0 °F 87% 29.63 in 10.0 mi NNW 6.9 mph - 0.00 in   Overcast
5:52 AM 61.0 °F 57.0 °F 87% 29.65 in 10.0 mi NNW 5.8 mph - N/A   Clear
6:52 AM 63.0 °F 57.9 °F 84% 29.68 in 10.0 mi NNW 3.5 mph - N/A   Clear
7:52 AM 66.9 °F 57.9 °F 73% 29.70 in 10.0 mi NW 6.9 mph - N/A   Clear
8:52 AM 70.0 °F 57.9 °F 65% 29.71 in 10.0 mi NW 10.4 mph - N/A   Mostly Cloudy
9:11 AM 68.0 °F 55.9 °F 65% 29.72 in 10.0 mi NW 11.5 mph - N/A   Scattered Clouds
9:52 AM 71.1 °F 55.9 °F 59% 29.73 in 10.0 mi NNW 9.2 mph - N/A   Partly Cloudy
10:52 AM 73.0 °F 53.1 °F 49% 29.76 in 10.0 mi NW 10.4 mph - N/A   Scattered Clouds
11:52 AM 73.0 °F 53.1 °F 49% 29.77 in 10.0 mi NW 6.9 mph - N/A   Mostly Cloudy
12:52 PM 73.9 °F 51.1 °F 45% 29.77 in 10.0 mi NW 10.4 mph 16.1 mph N/A   Scattered Clouds
1:52 PM 75.9 °F 46.9 °F 36% 29.76 in 10.0 mi WNW 6.9 mph - N/A   Partly Cloudy
2:52 PM 75.9 °F 48.9 °F 38% 29.75 in 10.0 mi Variable 4.6 mph - N/A   Clear
3:52 PM 75.9 °F 50.0 °F 40% 29.74 in 10.0 mi West 3.5 mph - N/A   Mostly Cloudy
4:52 PM 75.9 °F 48.9 °F 38% 29.75 in 10.0 mi Variable 6.9 mph - N/A   Mostly Cloudy
5:52 PM 75.9 °F 48.0 °F 37% 29.75 in 10.0 mi WNW 8.1 mph - N/A   Clear
6:52 PM 73.9 °F 45.0 °F 35% 29.76 in 10.0 mi West 3.5 mph - N/A   Clear
7:52 PM 69.1 °F 48.0 °F 47% 29.78 in 10.0 mi Calm Calm - N/A   Clear
8:52 PM 64.9 °F 53.1 °F 65% 29.79 in 10.0 mi Calm Calm - N/A   Clear
9:52 PM 60.1 °F 52.0 °F 75% 29.81 in 10.0 mi Calm Calm - N/A   Clear
10:52 PM 57.0 °F 52.0 °F 83% 29.82 in 10.0 mi Calm Calm - N/A   Clear
11:52 PM 55.9 °F 53.1 °F 90% 29.82 in 10.0 mi Calm Calm - N/A   Mostly Cloudy